Location: Beaufort Park
(39.1418°N, 76.9433°W)
Time: 00:26:38
(UTC+00:00)

Cosmos 2219 - Pass Details

Date: 29 October 2020
Orbit: 832 x 862 km, 71.1° (Epoch: 02 December)

Event Time Altitude Azimuth Distance (km) Brightness Sun altitude
Rises 23:10:59 0° 336° (NNW) 3,445 6.6 -12.4°
Reaches altitude 10° 23:13:27 10° 336° (NNW) 2,505 5.9 -12.9°
Maximum altitude 23:19:13 84° 249° (WSW) 871 3.3 -14.0°
Drops below altitude 10° 23:24:57 10° 162° (SSE) 2,487 5.5 -15.1°
Sets 23:27:24 0° 161° (SSE) 3,417 6.2 -15.6°
